Regional Weather Roundup
Issued by NWS

Home | Current Version | Previous Version | Graphics & Text | Print | Product List | Glossary On
Versions: 1 2 3 4 5 6 7 8 9 10 11 12 13 14 15 16 17 18 19 20 21 22 23 24 25 26 27 28 29 30 31 32 33 34 35 36 37 38 39 40 41 42 43 44 45 46 47 48 49 50
000
ASUS43 KDTX 260101
RWRMI
MICHIGAN HOURLY REGIONAL WEATHER ROUNDUP
NATIONAL WEATHER SERVICE DETROIT/PONTIAC MI
900 PM EDT WED MAY 25 2016

NOTE: "FAIR" INDICATES FEW OR NO CLOUDS BELOW 12,000 FEET WITH NO
SIGNIFICANT WEATHER AND/OR OBSTRUCTION TO VISIBILITY.

MIZ047>049-052>055-059>063-066>070-074>076-081>083-260200-
SOUTHEAST LOWER MICHIGAN

CITY           SKY/WX    TMP DP  RH WIND       PRES   REMARKS
ADRIAN         CLOUDY    77  58  51 SE5       29.99R
ALMA           PTCLDY    77  58  51 S3        29.95R
ANN ARBOR      CLOUDY    75  59  57 SE6       29.99R
BAD AXE        MOCLDY    62  53  71 E6        30.00R
CARO           PTCLDY    74  60  60 E6        29.97R
DETROIT CITY   CLEAR     77  57  50 S10       30.00S
DETROIT        CLOUDY    77  58  51 SE7       30.00R
FLINT          CLEAR     80  58  46 S6        29.98R
GROSSE ILE     PTCLDY    73  61  64 SE9       29.99R
HILLSDALE      PTCLDY    76  53  43 SE5       30.00R
HOWELL         PTCLDY    75  57  52 SE6       29.99R

CITY           SKY/WX    TMP DP  RH WIND       PRES   REMARKS
JACKSON        PTCLDY    74  58  57 SE6       29.98R
LAMBERTVILLE   MOCLDY    79  57  47 SE5       30.00R
LANSING        PTCLDY    77  59  53 S7        29.97R
LAPEER         FAIR      77  56  49 S7        29.99R
MASON          CLEAR     77  59  54 CALM      29.98R
MONROE         PTCLDY    74  61  63 SE3       29.99R
MT. CLEMENS    MOCLDY    71  60  67 S8        29.99R
PONTIAC        MOCLDY    77  58  51 S7        29.99R
PORT HOPE        N/A     59  53  80 E10       29.99S
PORT HURON     MOCLDY    73  59  60 S7        30.00S
TRI CITIES     MOCLDY    67  58  72 NE10      29.97R
MIDLAND        FAIR      67  56  70 NE5       29.96R
TROY           CLEAR     79  57  45 S7        30.02R
SAGINAW HB     PTCLDY    70  61  73 CALM      29.96R
$$
MIZ043>046-050>051-056>058-064>065-071>073-077>080-260200-
SOUTHWEST LOWER MICHIGAN

CITY           SKY/WX    TMP DP  RH WIND       PRES   REMARKS
BATTLE CREEK   PTCLDY    78  58  49 SE5       29.97R
BENTON HARBOR  CLOUDY    67  61  81 W13       29.95R
BIG RAPIDS     LGT RAIN  68  65  88 W3        29.97R
COLDWATER      CLEAR     74  59  58 CALM      29.97R
FREMONT        FAIR      78  62  57 CALM      29.93R
HOLLAND        CLOUDY    77  64  64 CALM      29.93R
GRAND RAPIDS   CLOUDY    79  60  52 SE3       29.94R
IONIA          FAIR      77  57  50 S7        29.95R
KALAMAZOO      MOCLDY    80  58  46 S5        29.95R
LUDINGTON      CLOUDY    70  62  77 CALM      29.92S
MARSHALL       CLOUDY    76  59  55 SE5       29.97R
MOUNT PLEASANT MOCLDY    72  59  64 NE5       29.96R
MUSKEGON       CLOUDY    78  61  55 CALM      29.92S
SOUTH HAVEN    CLOUDY    75  61  61 W18G26    29.97R
$$
MIZ016>042-260200-
NORTHERN LOWER MICHIGAN

CITY           SKY/WX    TMP DP  RH WIND       PRES   REMARKS
ALPENA         CLOUDY    60  53  77 SE8       30.02F
BEAVER ISLAND  PTCLDY    63  55  74 E13       29.97F
BELLAIRE       CLOUDY    70  63  79 E5        29.95S
CADILLAC       CLOUDY    65  61  89 E3        29.97F
CHARLEVOIX     CLOUDY    71  58  64 E7        29.98S
FRANKFORT      CLOUDY    71  61  69 CALM      29.93S
GAYLORD        CLOUDY    68  56  65 E6        30.00S
GRAYLING       CLOUDY    67  61  80 E8        30.00R
HARBOR SPRINGS CLOUDY    67  56  67 NE10      29.98S
HOUGHTON LAKE  LGT RAIN  65  62  90 E9        30.00R
MANISTEE       CLOUDY    72  59  64 CALM      29.94R
OSCODA         MOCLDY    61  52  73 NE6       30.01S
PELLSTON       CLOUDY    67  54  63 E8        29.99S
ROGERS CITY    CLOUDY    64  53  68 SE12      30.02F
TRAVERSE CITY  CLOUDY    69  59  70 CALM      29.94R
$$
MIZ007>008-015-260200-
EASTERN UPPER MICHIGAN

CITY           SKY/WX    TMP DP  RH WIND       PRES   REMARKS
KINROSS          N/A     64  55  72 SE14      30.02S
MACKINAC ISLAN MOCLDY    61  53  74 E14G24    30.00F
NEWBERRY       PTCLDY    67  57  71 SE10      29.99S
S. S. MARIE    PTCLDY    67  53  61 E5        30.01R
MUNISING         N/A     49  44  83 CALM      29.96F
$$
MIZ004>006-011>014-085-260200-
CENTRAL UPPER MICHIGAN

CITY           SKY/WX    TMP DP  RH WIND       PRES   REMARKS
MANISTIQUE     PTCLDY    64  55  74 E12       29.96F
ESCANABA       CLOUDY    64  55  72 E8        29.94F
MENOMINEE      LGT RAIN  58  56  93 NE9       29.93F
SAWYER-GWINN   CLEAR     54  46  76 NE5       29.97F
$$
MIZ001>003-009>011-084-260200-
WESTERN UPPER MICHIGAN

CITY           SKY/WX    TMP DP  RH WIND       PRES   REMARKS
IRON MOUNTAIN  LGT RAIN  62  59  90 SE5       29.93F FOG
HOUGHTON       CLOUDY    49  46  90 E14       29.94F
COPPER HARBOR    N/A     47  43  86 SE3       29.97F
IRONWOOD       CLOUDY    48  48 100 NW6       29.90F
$$

ABBREVIATIONS USED IN REMARKS
   TC - TEMPERATURE IN CELSIUS
  WCI - WIND CHILL INDEX
   HX - HEAT INDEX
  VSB - VISIBILITY




USA.gov is the U.S. government's official web portal to all federal, state and local government web resources and services.